Location: Demre
(36.2444°N, 29.9850°E)
Time: 05:50:46
(UTC+00:00)

IRAS Rocket - Pass Details

Date: 11 March 2026
Orbit: 845 x 876 km, 100.1° (Epoch: 21 April)

Event Time Altitude Azimuth Distance (km) Brightness Sun altitude
Exits shadow 17:22:48 - 158° (SSE) 3,410 7.1 -16.7°
Reaches altitude 10° 17:25:04 10° 157° (SSE) 2,519 6.4 -17.2°
Maximum altitude 17:30:39 75° 73° (ENE) 907 4.2 -18.3°
Drops below altitude 10° 17:36:15 10° 349° (N) 2,523 6.9 -19.4°
Sets 17:38:38 0° 348° (NNW) 3,460 7.7 -19.9°
